{"data":{"norad_id":27858,"epoch":"2026-09-19T21:34:36.588576Z","epoch_age_seconds":66470,"freshness":"FRESH","line1":"1 27858U 03036A   26262.89903459  .00000295  00000+0  42268-4 0  9998","line2":"2 27858  73.9324 343.1469 0006939  14.1618 345.9752 14.81541737245476","mean_motion":14.81541737,"eccentricity":0.0006939,"inclination_deg":73.9324,"raan_deg":343.1469,"arg_perigee_deg":14.1618,"mean_anomaly_deg":345.9752,"bstar":4.2268e-5,"rev_number":24547,"period_min":97.196046796217,"perigee_km":619.60273764757,"apogee_km":629.32094431909,"semimajor_km":7002.5988409833,"source":"CELESTRAK","updated_at":"2026-09-20T09:00:47.141727Z"}}